[[{"header":{"parameterUnit":"m.s-1","parameterCategory":1,"la1":30.2991,"la2":30.254,"lo1":-89.0895,"lo2":-89.0444,"dy":0.0017,"dx":0.0017,"nx":28,"ny":28,"refTime":"2024-04-21T09:00:00:Z","depth":0,"parameterNumber":2,"parameterNumberName":"U-component_of_WINDS"},"data":[0,0,0,0,0,0,0,0,0,0,0,0,0,0,0,0,0,0,0,0,0,0,0,0,0,0,0,0,0,0,0,0,0,0,0,0,0,0,0,0,0,0,0,0,0,0,0,0,0,0,0,0,0,0,0,0,0,0,-2.8226,-2.8226,0,-2.8272,-2.8272,-2.8273,-2.8298,-2.8299,-2.8299,-2.8299,-2.8342,-2.8343,-2.8344,0,0,0,0,0,0,0,0,0,0,0,0,0,-2.8154,-2.8155,-2.8226,-2.8227,-2.8227,-2.8271,-2.8272,-2.8273,-2.8298,-2.8299,-2.8299,-2.8299,-2.8341,-2.8343,-2.8344,0,0,0,0,0,0,0,0,0,0,0,0,0,-2.8191,-2.8156,-2.8226,-2.8245,-2.8248,-2.8271,-2.8272,-2.8273,-2.8298,-2.8299,-2.8299,-2.8299,-2.8341,-2.8343,-2.8344,-2.8351,0,0,-2.8349,-2.835,0,0,0,0,0,0,0,0,-2.8189,-2.8193,-2.8242,-2.8244,-2.8247,-2.828,-2.8263,-2.8299,-2.8298,-2.8279,-2.8299,-2.8299,-2.8321,-2.8324,-2.8332,-2.8353,-2.8355,-2.8349,-2.835,-2.8351,-2.8351,0,0,0,0,0,0,0,-2.8186,-2.8192,-2.8244,-2.8243,-2.8245,-2.8249,-2.8255,-2.8269,-2.8298,-2.8281,-2.8283,-2.8288,-2.8322,-2.833,-2.8333,-2.8355,-2.8349,-2.835,-2.8351,-2.8352,-2.8377,-2.8377,0,0,0,0,0,0,-2.8181,-2.8189,-2.8242,-2.8245,-2.8218,-2.8251,-2.8257,-2.8269,-2.8298,-2.8303,-2.8288,-2.8289,-2.8328,-2.8331,-2.8335,-2.8341,-2.8351,-2.8352,-2.8353,-2.8378,-2.8377,-2.8377,0,0,0,0,0,0,-2.818,-2.8186,-2.8241,-2.8218,-2.8225,-2.8252,-2.8265,-2.827,-2.8278,-2.8304,-2.8308,-2.8292,-2.8328,-2.8333,-2.8346,-2.8343,-2.8353,-2.8354,-2.8378,-2.8378,-2.8377,-2.8355,0,0,0,0,0,0,-2.8177,-2.8185,-2.819,-2.8218,-2.8226,-2.8253,-2.8265,-2.827,-2.8281,-2.8283,-2.8309,-2.8313,-2.8328,-2.8343,-2.8347,-2.8345,-2.8356,-2.8378,-2.8378,-2.8377,-2.8356,-2.8354,-2.8352,0,0,0,0,0,-2.8175,-2.8183,-2.819,-2.8197,-2.8233,-2.8253,-2.8257,-2.8276,-2.8281,-2.8285,-2.83,-2.8312,-2.8343,-2.8344,-2.8349,-2.8348,-2.8379,-2.8378,-2.8377,-2.8357,-2.8355,-2.8353,0,0,0,0,0,0,-2.8155,-2.8187,-2.8196,-2.8213,-2.823,-2.8257,-2.8263,-2.8274,-2.8289,-2.829,-2.8311,-2.8317,-2.8326,-2.8338,-2.834,-2.8352,-2.8361,-2.8362,-2.8345,-2.8342,-2.834,-2.8337,-2.8357,0,0,0,0,0,-2.8152,-2.8167,-2.8194,-2.8206,-2.8214,-2.8237,-2.8246,-2.8259,-2.8276,-2.8283,-2.83,-2.8315,-2.8328,-2.8336,-2.8349,-2.8358,-2.8361,-2.8359,-2.8357,-2.8355,-2.8355,-2.8355,-2.8353,-2.8375,-2.8375,-2.8375,0,0,-2.8147,-2.8167,-2.8175,-2.8203,-2.8217,-2.8229,-2.8243,-2.8256,-2.8264,-2.8285,-2.8298,-2.831,-2.8328,-2.8337,-2.8342,-2.8348,-2.8349,-2.8354,-2.8353,-2.8353,-2.8354,-2.8352,-2.835,-2.8375,-2.8375,-2.8375,0,0,-2.8144,-2.8162,-2.8172,-2.8185,-2.8207,-2.8221,-2.8223,-2.8247,-2.8256,-2.8269,-2.8283,-2.8292,-2.8314,-2.8325,-2.8333,-2.8328,-2.8337,-2.8331,-2.8321,-2.832,-2.8319,-2.8317,-2.8311,-2.831,-2.8331,-2.8331,-2.8331,0,-2.8135,-2.8156,-2.8176,-2.8187,-2.8197,-2.8215,-2.8223,-2.8235,-2.8259,-2.8264,-2.8269,-2.8294,-2.8308,-2.8318,-2.8316,-2.8323,-2.8323,-2.8329,-2.8318,-2.8316,-2.8315,-2.831,-2.8308,-2.833,-2.833,-2.833,-2.833,0,-2.8142,-2.8155,-2.8161,-2.8182,-2.8193,-2.8202,-2.822,-2.8228,-2.8238,-2.825,-2.8259,-2.8276,-2.8291,-2.8294,-2.8305,-2.8303,-2.8305,-2.8314,-2.8323,-2.8311,-2.8306,-2.8305,-2.8328,-2.8329,-2.8329,-2.8329,0,0,-2.8131,-2.816,-2.8161,-2.8169,-2.8191,-2.82,-2.8208,-2.8223,-2.8226,-2.8241,-2.8246,-2.8262,-2.8268,-2.8277,-2.8288,-2.8289,-2.8277,-2.8296,-2.8297,-2.829,-2.8272,-2.8264,-2.8262,-2.8284,-2.8284,-2.8284,-2.8269,0,-2.8129,-2.8147,-2.8162,-2.8172,-2.8182,-2.8196,-2.8202,-2.8215,-2.8225,-2.8232,-2.8243,-2.8252,-2.8262,-2.8267,-2.8268,-2.8279,-2.8274,-2.828,-2.8285,-2.8285,-2.8279,-2.826,-2.8253,-2.8239,-2.8268,-2.8267,-2.8267,0,-2.8131,-2.8143,-2.8154,-2.817,-2.8175,-2.818,-2.8191,-2.82,-2.8212,-2.8218,-2.8226,-2.8237,-2.8242,-2.825,-2.8255,-2.8259,-2.8261,-2.8266,-2.8266,-2.8266,-2.8275,-2.8257,-2.8235,-2.8232,-2.8265,-2.8265,-2.8266,0,-2.8118,-2.8137,-2.8145,-2.8151,-2.8171,-2.8173,-2.8181,-2.8194,-2.8199,-2.8208,-2.8211,-2.822,-2.8225,-2.823,-2.8241,-2.8247,-2.8243,-2.8254,-2.8246,-2.8245,-2.8245,-2.8244,-2.822,-2.8249,-2.8249,-2.8249,-2.8249,0,-2.8114,-2.8119,-2.8138,-2.8143,-2.8147,-2.8163,-2.8166,-2.8175,-2.8184,-2.8188,-2.8201,-2.8204,-2.822,-2.8224,-2.8232,-2.8232,-2.8235,-2.8238,-2.824,-2.8236,-2.8235,-2.8237,-2.8238,-2.8249,-2.8249,-2.8249,-2.8249,0,-2.8101,-2.8114,-2.8123,-2.8139,-2.8143,-2.8145,-2.8158,-2.816,-2.817,-2.8174,-2.8176,-2.8189,-2.8194,-2.8205,-2.8213,-2.8218,-2.8214,-2.822,-2.8211,-2.8212,-2.8202,-2.8202,-2.8177,-2.8173,-2.8207,-2.8206,-2.8206,0,-2.8097,-2.8101,-2.8116,-2.812,-2.8127,-2.8133,-2.8138,-2.8151,-2.8155,-2.8165,-2.8166,-2.8171,-2.8176,-2.8181,-2.819,-2.8194,-2.8198,-2.8189,-2.8199,-2.8193,-2.8194,-2.8193,-2.8191,-2.8187,-2.8186,-2.8186,-2.8186,0,-2.8087,-2.8092,-2.81,-2.8107,-2.8112,-2.8119,-2.8126,-2.8128,-2.8142,-2.8145,-2.8149,-2.8152,-2.8158,-2.8161,-2.8166,-2.8171,-2.8179,-2.8182,-2.818,-2.8175,-2.8168,-2.8168,-2.8202,-2.8183,-2.8183,-2.8183,-2.8183,-2.8183,-2.8077,-2.8079,-2.8089,-2.8094,-2.81,-2.8105,-2.8107,-2.8115,-2.8119,-2.8125,-2.8132,-2.8134,-2.814,-2.8147,-2.815,-2.815,-2.8155,-2.8153,-2.8152,-2.8151,-2.8147,-2.8169,-2.8151,-2.8151,-2.8151,-2.8151,-2.8152,0,-2.8065,-2.8071,-2.8076,-2.8084,-2.8087,-2.8094,-2.8101,-2.8102,-2.8104,-2.811,-2.8113,-2.8114,-2.8116,-2.8123,-2.8125,-2.8123,-2.8126,-2.8122,-2.8122,-2.8122,-2.8145,-2.8145,-2.8119,-2.8119,-2.8119,-2.8119,-2.8119,-2.8119,-2.806,-2.8062,-2.8067,-2.807,-2.8076,-2.8078,-2.808,-2.8083,-2.8087,-2.8088,-2.8089,-2.8094,-2.8098,-2.8099,-2.8099,-2.8101,-2.81,-2.8094,-2.8097,-2.8118,-2.8121,-2.8124,-2.8124,-2.8095,-2.8094,-2.8074,-2.8073,-2.8073]},{"header":{"parameterUnit":"m.s-1","parameterCategory":1,"la1":30.2991,"la2":30.254,"lo1":-89.0895,"lo2":-89.0444,"dy":0.0017,"dx":0.0017,"nx":28,"ny":28,"refTime":"2024-04-21T09:00:00:Z","depth":0,"parameterNumber":3,"parameterNumberName":"V-component_of_WINDS"},"data":[0,0,0,0,0,0,0,0,0,0,0,0,0,0,0,0,0,0,0,0,0,0,0,0,0,0,0,0,0,0,0,0,0,0,0,0,0,0,0,0,0,0,0,0,0,0,0,0,0,0,0,0,0,0,0,0,0,0,-3.7782,-3.7784,0,-3.7903,-3.7904,-3.7906,-3.7988,-3.7989,-3.799,-3.799,-3.8106,-3.8108,-3.8111,0,0,0,0,0,0,0,0,0,0,0,0,0,-3.7614,-3.7616,-3.7782,-3.7784,-3.7785,-3.7903,-3.7904,-3.7906,-3.7988,-3.7989,-3.799,-3.799,-3.8105,-3.8108,-3.8111,0,0,0,0,0,0,0,0,0,0,0,0,0,-3.7705,-3.7617,-3.7782,-3.7841,-3.7847,-3.7902,-3.7904,-3.7906,-3.7988,-3.7989,-3.799,-3.7991,-3.8104,-3.8107,-3.8111,-3.8115,0,0,-3.8123,-3.8124,0,0,0,0,0,0,0,0,-3.77,-3.7711,-3.783,-3.7837,-3.7844,-3.7932,-3.7887,-3.7976,-3.7988,-3.7934,-3.799,-3.7991,-3.8046,-3.8055,-3.8075,-3.8121,-3.8126,-3.8123,-3.8125,-3.8127,-3.8128,0,0,0,0,0,0,0,-3.7694,-3.7707,-3.783,-3.7832,-3.784,-3.7858,-3.7872,-3.7904,-3.7983,-3.7939,-3.7945,-3.7959,-3.805,-3.8071,-3.8079,-3.8127,-3.8123,-3.8126,-3.8128,-3.813,-3.8178,-3.8177,0,0,0,0,0,0,-3.7679,-3.7701,-3.7826,-3.7833,-3.7773,-3.786,-3.7876,-3.7902,-3.7983,-3.7997,-3.7958,-3.7962,-3.8065,-3.8074,-3.8083,-3.809,-3.8127,-3.813,-3.8132,-3.8179,-3.8177,-3.8176,0,0,0,0,0,0,-3.7675,-3.769,-3.7821,-3.7769,-3.7787,-3.7862,-3.7891,-3.7904,-3.7926,-3.7998,-3.8011,-3.7966,-3.8066,-3.8078,-3.8106,-3.8095,-3.8132,-3.8135,-3.818,-3.8178,-3.8177,-3.8106,0,0,0,0,0,0,-3.767,-3.7688,-3.7693,-3.7769,-3.779,-3.7845,-3.7891,-3.7906,-3.7933,-3.794,-3.8009,-3.8021,-3.8067,-3.81,-3.811,-3.8101,-3.8138,-3.8181,-3.8179,-3.8177,-3.811,-3.8102,-3.8096,0,0,0,0,0,-3.7664,-3.7667,-3.7692,-3.7707,-3.7797,-3.7844,-3.7856,-3.7912,-3.7932,-3.7935,-3.7981,-3.8019,-3.8095,-3.8102,-3.8114,-3.8106,-3.8182,-3.818,-3.8177,-3.8113,-3.8104,-3.8096,0,0,0,0,0,0,-3.7585,-3.7678,-3.7707,-3.7736,-3.7782,-3.7858,-3.7865,-3.7901,-3.7941,-3.7945,-3.801,-3.8025,-3.8046,-3.8079,-3.8085,-3.8112,-3.8143,-3.8143,-3.809,-3.8082,-3.8075,-3.8065,-3.8141,0,0,0,0,0,-3.7572,-3.7605,-3.7683,-3.77,-3.7722,-3.7789,-3.7811,-3.7851,-3.79,-3.7919,-3.7967,-3.8011,-3.8045,-3.8065,-3.8101,-3.8115,-3.8129,-3.8115,-3.8109,-3.8103,-3.8101,-3.8107,-3.8101,-3.8169,-3.8169,-3.8169,0,0,-3.7543,-3.7598,-3.7615,-3.7686,-3.7726,-3.7755,-3.7805,-3.7835,-3.7856,-3.7923,-3.7953,-3.7989,-3.8042,-3.8062,-3.8074,-3.8091,-3.8085,-3.81,-3.8095,-3.8096,-3.8104,-3.8098,-3.8092,-3.8168,-3.8168,-3.8168,0,0,-3.7506,-3.7552,-3.757,-3.7609,-3.767,-3.7715,-3.7718,-3.779,-3.7817,-3.7848,-3.7898,-3.7923,-3.7981,-3.8016,-3.8041,-3.8014,-3.8048,-3.8023,-3.7987,-3.7992,-3.7986,-3.7982,-3.7968,-3.7963,-3.8022,-3.8022,-3.8022,0,-3.7462,-3.7511,-3.7574,-3.76,-3.7628,-3.7692,-3.7708,-3.7743,-3.7811,-3.7827,-3.7846,-3.7918,-3.7959,-3.7986,-3.7979,-3.7999,-3.8002,-3.8015,-3.7983,-3.7979,-3.7975,-3.7963,-3.7958,-3.8018,-3.8018,-3.8019,-3.8019,0,-3.7452,-3.7485,-3.7492,-3.7557,-3.7586,-3.7607,-3.767,-3.7691,-3.7727,-3.7768,-3.7796,-3.7847,-3.7892,-3.7902,-3.7938,-3.7934,-3.7942,-3.7971,-3.8003,-3.7964,-3.7953,-3.795,-3.8013,-3.8014,-3.8015,-3.8016,0,0,-3.7368,-3.7468,-3.7469,-3.7498,-3.7569,-3.7594,-3.7616,-3.7663,-3.7677,-3.7722,-3.7739,-3.7786,-3.7812,-3.7841,-3.788,-3.7885,-3.7855,-3.7913,-3.7915,-3.7897,-3.785,-3.7825,-3.7819,-3.788,-3.7879,-3.7879,-3.7844,0,-3.7339,-3.7386,-3.7441,-3.7467,-3.7495,-3.7555,-3.7574,-3.7617,-3.7656,-3.7683,-3.7725,-3.7755,-3.779,-3.7807,-3.7815,-3.7857,-3.7846,-3.7861,-3.7892,-3.7893,-3.7874,-3.7814,-3.7789,-3.7754,-3.7841,-3.784,-3.784,0,-3.7312,-3.7354,-3.7383,-3.7448,-3.7462,-3.7479,-3.7523,-3.755,-3.7599,-3.7626,-3.7657,-3.7699,-3.7721,-3.7751,-3.778,-3.7789,-3.7805,-3.7828,-3.7828,-3.783,-3.7861,-3.7811,-3.7744,-3.7737,-3.7834,-3.7835,-3.7835,0,-3.7244,-3.7308,-3.7332,-3.7356,-3.7434,-3.7443,-3.7475,-3.7526,-3.7549,-3.7587,-3.7602,-3.7642,-3.7662,-3.769,-3.774,-3.7758,-3.7762,-3.7798,-3.7782,-3.778,-3.7778,-3.7777,-3.7708,-3.7794,-3.7794,-3.7794,-3.7794,0,-3.7204,-3.7218,-3.7302,-3.7317,-3.7333,-3.7396,-3.7409,-3.7446,-3.749,-3.751,-3.7564,-3.7581,-3.7648,-3.7672,-3.7711,-3.7727,-3.7737,-3.7756,-3.7765,-3.7749,-3.7746,-3.7758,-3.776,-3.7793,-3.7793,-3.7793,-3.7793,0,-3.713,-3.7188,-3.7217,-3.7289,-3.7307,-3.7315,-3.7374,-3.7389,-3.743,-3.7454,-3.7463,-3.7527,-3.7557,-3.7611,-3.7657,-3.7683,-3.7689,-3.7708,-3.7673,-3.7678,-3.7658,-3.7657,-3.7592,-3.7585,-3.7678,-3.7677,-3.7676,0,-3.7099,-3.7111,-3.7184,-3.7202,-3.7233,-3.7262,-3.7286,-3.7347,-3.7369,-3.7424,-3.743,-3.7465,-3.7496,-3.7541,-3.7589,-3.7623,-3.7641,-3.7616,-3.7646,-3.7628,-3.7636,-3.7633,-3.7632,-3.7608,-3.7606,-3.7605,-3.7605,0,-3.7037,-3.7064,-3.7098,-3.7141,-3.7168,-3.7204,-3.7242,-3.7253,-3.7322,-3.7343,-3.7376,-3.74,-3.7446,-3.7479,-3.7519,-3.7549,-3.7586,-3.7595,-3.7592,-3.7574,-3.7551,-3.7559,-3.765,-3.7596,-3.7596,-3.7597,-3.7598,-3.7598,-3.6982,-3.6994,-3.7046,-3.708,-3.7116,-3.715,-3.7166,-3.7209,-3.7238,-3.7282,-3.7315,-3.7344,-3.7389,-3.7448,-3.7475,-3.7496,-3.7513,-3.7511,-3.7509,-3.7507,-3.7498,-3.7551,-3.7504,-3.7504,-3.7504,-3.7505,-3.7505,0,-3.6919,-3.6955,-3.6987,-3.7039,-3.7064,-3.7101,-3.7144,-3.7162,-3.7188,-3.7228,-3.7257,-3.7292,-3.7323,-3.7373,-3.7407,-3.7414,-3.7431,-3.742,-3.7418,-3.7424,-3.7483,-3.748,-3.7405,-3.7405,-3.7405,-3.7405,-3.7405,-3.7405,-3.6889,-3.6911,-3.6943,-3.6981,-3.7017,-3.7047,-3.7068,-3.7098,-3.713,-3.7167,-3.7194,-3.7227,-3.727,-3.7307,-3.7335,-3.7349,-3.7357,-3.7339,-3.7358,-3.7411,-3.742,-3.7429,-3.7426,-3.7342,-3.7342,-3.7297,-3.7296,-3.7296]}]]